Time,TemperatureF,DewpointF,PressureIn,WindDirection,WindDirectionDegrees,WindSpeedMPH,WindSpeedGustMPH,Humidity,HourlyPrecipIn,Conditions,Clouds,dailyrainin,SoftwareType,DateUTC
2013-06-17 00:01:00,62.6,57.0,29.50,NW,315,0.0,0.0,82,0.00,,---,0.00,VWS V14.01,2013-06-17 04:01:00,
2013-06-17 00:06:00,62.6,57.0,29.50,NW,315,0.0,0.0,82,0.00,,---,0.00,VWS V14.01,2013-06-17 04:06:00,
2013-06-17 00:11:00,62.6,57.0,29.50,NW,315,0.0,0.0,82,0.00,,---,0.00,VWS V14.01,2013-06-17 04:11:00,
2013-06-17 00:16:00,62.6,57.4,29.50,NW,315,0.0,0.0,83,0.00,,---,0.00,VWS V14.01,2013-06-17 04:16:00,
2013-06-17 00:21:00,62.4,57.5,29.50,NW,315,0.0,0.0,84,0.00,,---,0.00,VWS V14.01,2013-06-17 04:21:00,
2013-06-17 00:26:00,62.2,57.3,29.50,NW,315,0.0,0.0,84,0.00,,---,0.00,VWS V14.01,2013-06-17 04:26:00,
2013-06-17 00:31:00,62.2,57.3,29.50,NW,315,0.0,0.0,84,0.00,,---,0.00,VWS V14.01,2013-06-17 04:31:00,
2013-06-17 00:36:00,62.1,57.5,29.50,NW,315,0.0,0.0,85,0.00,,---,0.00,VWS V14.01,2013-06-17 04:36:00,
2013-06-17 00:41:00,61.9,57.3,29.50,NW,315,0.0,0.0,85,0.00,,---,0.00,VWS V14.01,2013-06-17 04:41:00,
2013-06-17 00:46:00,61.9,57.3,29.50,NW,315,0.0,0.0,85,0.00,,---,0.00,VWS V14.01,2013-06-17 04:46:00,
2013-06-17 00:51:00,61.9,57.7,29.50,NW,315,0.0,0.0,86,0.00,,---,0.00,VWS V14.01,2013-06-17 04:51:00,
2013-06-17 00:56:00,61.7,57.5,29.47,NW,315,0.0,0.0,86,0.00,,---,0.00,VWS V14.01,2013-06-17 04:56:00,
2013-06-17 01:01:00,61.7,57.5,29.47,NW,315,0.0,0.0,86,0.00,,---,0.00,VWS V14.01,2013-06-17 05:01:00,
2013-06-17 01:06:00,61.7,57.5,29.47,NW,315,0.0,0.0,86,0.00,,---,0.00,VWS V14.01,2013-06-17 05:06:00,
2013-06-17 01:10:00,61.7,57.5,29.50,NW,315,0.0,0.0,86,0.00,,---,0.00,VWS V14.01,2013-06-17 05:10:00,
2013-06-17 01:15:00,61.7,57.8,29.50,NW,315,0.0,0.0,87,0.00,,---,0.00,VWS V14.01,2013-06-17 05:15:00,
2013-06-17 01:20:00,61.7,57.8,29.50,NW,315,0.0,0.0,87,0.00,,---,0.00,VWS V14.01,2013-06-17 05:20:00,
2013-06-17 01:25:00,61.5,57.6,29.50,NW,315,0.0,0.0,87,0.00,,---,0.00,VWS V14.01,2013-06-17 05:25:00,
2013-06-17 01:30:00,61.3,57.4,29.50,NW,315,0.0,0.0,87,0.00,,---,0.00,VWS V14.01,2013-06-17 05:30:00,
2013-06-17 01:35:00,61.2,57.3,29.50,NW,315,0.0,0.0,87,0.00,,---,0.00,VWS V14.01,2013-06-17 05:35:00,
2013-06-17 01:40:00,61.0,57.4,29.50,NW,315,0.0,0.0,88,0.00,,---,0.00,VWS V14.01,2013-06-17 05:40:00,
2013-06-17 01:45:00,60.8,56.9,29.50,NW,315,0.0,0.0,87,0.00,,---,0.00,VWS V14.01,2013-06-17 05:45:00,
2013-06-17 01:50:00,60.6,57.0,29.50,NW,315,0.0,0.0,88,0.00,,---,0.00,VWS V14.01,2013-06-17 05:50:00,
2013-06-17 01:55:00,60.4,57.2,29.50,NW,315,0.0,0.0,89,0.00,,---,0.00,VWS V14.01,2013-06-17 05:55:00,
2013-06-17 02:00:00,60.3,57.0,29.50,NW,315,0.0,0.0,89,0.00,,---,0.00,VWS V14.01,2013-06-17 06:00:00,
2013-06-17 02:05:00,60.1,57.1,29.50,NW,315,0.0,0.0,90,0.00,,---,0.00,VWS V14.01,2013-06-17 06:05:00,
2013-06-17 02:10:00,59.9,57.0,29.50,NW,315,0.0,0.0,90,0.00,,---,0.00,VWS V14.01,2013-06-17 06:10:00,
2013-06-17 02:15:00,59.7,56.8,29.50,NW,315,0.0,0.0,90,0.00,,---,0.00,VWS V14.01,2013-06-17 06:15:00,
2013-06-17 02:20:00,59.5,56.9,29.50,NW,315,0.0,0.0,91,0.00,,---,0.00,VWS V14.01,2013-06-17 06:20:00,
2013-06-17 02:25:00,59.4,56.7,29.53,NW,315,0.0,0.0,91,0.00,,---,0.00,VWS V14.01,2013-06-17 06:25:00,
2013-06-17 02:30:00,59.2,56.6,29.53,NW,315,0.0,0.0,91,0.00,,---,0.00,VWS V14.01,2013-06-17 06:30:00,
2013-06-17 02:35:00,59.2,56.6,29.53,NW,315,0.0,0.0,91,0.00,,---,0.00,VWS V14.01,2013-06-17 06:35:00,
2013-06-17 02:40:00,59.0,56.7,29.53,NW,315,0.0,0.0,92,0.00,,---,0.00,VWS V14.01,2013-06-17 06:40:00,
2013-06-17 02:45:00,58.8,56.5,29.53,NW,315,0.0,0.0,92,0.00,,---,0.00,VWS V14.01,2013-06-17 06:45:00,
2013-06-17 02:50:00,58.8,56.5,29.53,NW,315,0.0,0.0,92,0.00,,---,0.00,VWS V14.01,2013-06-17 06:50:00,
2013-06-17 02:55:00,58.8,56.8,29.53,NW,315,0.0,0.0,93,0.00,,---,0.00,VWS V14.01,2013-06-17 06:55:00,
2013-06-17 03:00:00,58.6,56.6,29.53,NW,315,0.0,0.0,93,0.00,,---,0.00,VWS V14.01,2013-06-17 07:00:00,
2013-06-17 03:05:00,58.6,56.6,29.53,NW,315,0.0,0.0,93,0.00,,---,0.00,VWS V14.01,2013-06-17 07:05:00,
2013-06-17 03:10:00,58.6,56.6,29.53,NW,315,0.0,0.0,93,0.00,,---,0.00,VWS V14.01,2013-06-17 07:10:00,
2013-06-17 03:15:00,58.6,56.6,29.53,NW,315,0.0,0.0,93,0.00,,---,0.00,VWS V14.01,2013-06-17 07:15:00,
2013-06-17 03:20:00,58.5,56.5,29.53,NW,315,0.0,0.0,93,0.00,,---,0.00,VWS V14.01,2013-06-17 07:20:00,
2013-06-17 03:25:00,58.5,56.7,29.50,NW,315,0.0,0.0,94,0.00,,---,0.00,VWS V14.01,2013-06-17 07:25:00,
2013-06-17 03:30:00,58.3,56.3,29.50,NW,315,0.0,0.0,93,0.00,,---,0.00,VWS V14.01,2013-06-17 07:30:00,
2013-06-17 03:35:00,58.3,56.3,29.50,NW,315,0.0,0.0,93,0.00,,---,0.00,VWS V14.01,2013-06-17 07:35:00,
2013-06-17 03:40:00,58.1,56.4,29.50,NW,315,0.0,0.0,94,0.00,,---,0.00,VWS V14.01,2013-06-17 07:40:00,
2013-06-17 03:45:00,57.9,56.2,29.50,NW,315,0.0,0.0,94,0.00,,---,0.00,VWS V14.01,2013-06-17 07:45:00,
2013-06-17 03:50:00,57.9,56.2,29.50,NW,315,0.0,0.0,94,0.00,,---,0.00,VWS V14.01,2013-06-17 07:50:00,
2013-06-17 03:55:00,57.7,56.0,29.50,NW,315,0.0,0.0,94,0.00,,---,0.00,VWS V14.01,2013-06-17 07:55:00,
2013-06-17 04:00:00,57.7,56.0,29.50,NW,315,0.0,0.0,94,0.00,,---,0.00,VWS V14.01,2013-06-17 08:00:00,
2013-06-17 04:05:00,57.6,55.8,29.50,NW,315,0.0,0.0,94,0.00,,---,0.00,VWS V14.01,2013-06-17 08:05:00,
2013-06-17 04:10:00,57.4,55.7,29.53,NW,315,0.0,0.0,94,0.00,,---,0.00,VWS V14.01,2013-06-17 08:10:00,
2013-06-17 04:15:00,57.2,55.5,29.53,NW,315,0.0,0.0,94,0.00,,---,0.00,VWS V14.01,2013-06-17 08:15:00,
2013-06-17 04:20:00,57.2,55.5,29.53,NW,315,0.0,0.0,94,0.00,,---,0.00,VWS V14.01,2013-06-17 08:20:00,
2013-06-17 04:25:00,57.0,55.6,29.53,NW,315,0.0,0.0,95,0.00,,---,0.00,VWS V14.01,2013-06-17 08:25:00,
2013-06-17 04:30:00,56.8,55.4,29.53,NW,315,0.0,0.0,95,0.00,,---,0.00,VWS V14.01,2013-06-17 08:30:00,
2013-06-17 04:35:00,56.7,55.2,29.53,NW,315,0.0,0.0,95,0.00,,---,0.00,VWS V14.01,2013-06-17 08:35:00,
2013-06-17 04:40:00,56.5,55.1,29.56,NW,315,0.0,0.0,95,0.00,,---,0.00,VWS V14.01,2013-06-17 08:40:00,
2013-06-17 04:45:00,56.5,54.8,29.56,NW,315,0.0,0.0,94,0.00,,---,0.00,VWS V14.01,2013-06-17 08:45:00,
2013-06-17 04:50:00,56.5,55.1,29.56,NW,315,0.0,0.0,95,0.00,,---,0.00,VWS V14.01,2013-06-17 08:50:00,
2013-06-17 04:55:00,56.5,55.1,29.56,NW,315,0.0,0.0,95,0.00,,---,0.00,VWS V14.01,2013-06-17 08:55:00,
2013-06-17 05:00:00,56.3,54.9,29.56,NW,315,0.0,0.0,95,0.00,,---,0.00,VWS V14.01,2013-06-17 09:00:00,
2013-06-17 05:05:00,56.3,54.9,29.56,NW,315,0.0,0.0,95,0.00,,---,0.00,VWS V14.01,2013-06-17 09:05:00,
2013-06-17 05:10:00,56.3,54.9,29.56,NW,315,0.0,0.0,95,0.00,,---,0.00,VWS V14.01,2013-06-17 09:10:00,
2013-06-17 05:15:00,56.3,55.2,29.56,NW,315,0.0,0.0,96,0.00,,---,0.00,VWS V14.01,2013-06-17 09:15:00,
2013-06-17 05:20:00,56.3,55.2,29.56,NW,315,0.0,0.0,96,0.00,,---,0.00,VWS V14.01,2013-06-17 09:20:00,
2013-06-17 05:25:00,56.5,55.4,29.56,NW,315,0.0,0.0,96,0.00,,---,0.00,VWS V14.01,2013-06-17 09:25:00,
2013-06-17 05:30:00,56.5,55.4,29.56,North,0,0.0,0.0,96,0.00,,---,0.00,VWS V14.01,2013-06-17 09:30:00,
2013-06-17 05:35:00,56.5,55.1,29.56,North,0,0.0,0.0,95,0.00,,---,0.00,VWS V14.01,2013-06-17 09:35:00,
2013-06-17 05:40:00,56.5,55.4,29.56,North,0,0.0,0.0,96,0.00,,---,0.00,VWS V14.01,2013-06-17 09:40:00,
2013-06-17 05:45:00,56.7,55.5,29.56,North,0,0.0,0.0,96,0.00,,---,0.00,VWS V14.01,2013-06-17 09:45:00,
2013-06-17 05:50:00,56.7,55.5,29.56,North,0,0.0,0.0,96,0.00,,---,0.00,VWS V14.01,2013-06-17 09:50:00,
2013-06-17 05:55:00,56.7,55.5,29.56,North,0,0.0,0.0,96,0.00,,---,0.00,VWS V14.01,2013-06-17 09:55:00,
2013-06-17 06:00:00,56.7,55.5,29.56,North,0,0.0,0.0,96,0.00,,---,0.00,VWS V14.01,2013-06-17 10:00:00,
2013-06-17 06:05:00,56.8,55.7,29.56,North,0,0.0,0.0,96,0.00,,---,0.00,VWS V14.01,2013-06-17 10:05:00,
2013-06-17 06:10:00,56.8,55.7,29.59,North,0,0.0,0.0,96,0.00,,---,0.00,VWS V14.01,2013-06-17 10:10:00,
2013-06-17 06:15:00,57.0,55.9,29.59,North,0,0.0,0.0,96,0.00,,---,0.00,VWS V14.01,2013-06-17 10:15:00,
2013-06-17 06:20:00,57.2,56.1,29.59,North,0,0.0,0.0,96,0.00,,---,0.00,VWS V14.01,2013-06-17 10:20:00,
2013-06-17 06:25:00,57.6,56.4,29.56,North,0,0.0,0.0,96,0.00,,---,0.00,VWS V14.01,2013-06-17 10:25:00,
2013-06-17 06:30:00,57.7,56.6,29.56,North,0,0.0,0.0,96,0.00,,---,0.00,VWS V14.01,2013-06-17 10:30:00,
2013-06-17 06:35:00,57.9,56.8,29.56,North,0,0.0,0.0,96,0.00,,---,0.00,VWS V14.01,2013-06-17 10:35:00,
2013-06-17 06:40:00,58.1,57.0,29.56,North,0,0.0,0.0,96,0.00,,---,0.00,VWS V14.01,2013-06-17 10:40:00,
2013-06-17 06:45:00,58.3,57.2,29.56,North,0,0.0,0.0,96,0.00,,---,0.00,VWS V14.01,2013-06-17 10:45:00,
2013-06-17 06:50:00,59.2,58.0,29.56,North,0,0.0,0.0,96,0.00,,---,0.00,VWS V14.01,2013-06-17 10:50:00,
2013-06-17 06:55:00,59.4,58.2,29.56,North,0,0.0,0.0,96,0.00,,---,0.00,VWS V14.01,2013-06-17 10:55:00,
2013-06-17 07:00:00,59.5,58.4,29.56,North,0,0.0,0.0,96,0.00,,---,0.00,VWS V14.01,2013-06-17 11:00:00,
2013-06-17 07:04:00,59.7,58.6,29.56,North,0,0.0,0.0,96,0.00,,---,0.00,VWS V14.01,2013-06-17 11:04:00,
2013-06-17 07:09:00,60.1,58.9,29.56,North,0,0.0,0.0,96,0.00,,---,0.00,VWS V14.01,2013-06-17 11:09:00,
2013-06-17 07:14:00,60.4,59.3,29.56,North,0,0.0,0.0,96,0.00,,---,0.00,VWS V14.01,2013-06-17 11:14:00,
2013-06-17 07:19:00,60.6,59.5,29.56,North,0,0.0,0.0,96,0.00,,---,0.00,VWS V14.01,2013-06-17 11:19:00,
2013-06-17 07:24:00,61.0,59.8,29.56,North,0,0.0,0.0,96,0.00,,---,0.00,VWS V14.01,2013-06-17 11:24:00,
2013-06-17 07:29:00,61.3,60.2,29.56,North,0,0.0,0.0,96,0.00,,---,0.00,VWS V14.01,2013-06-17 11:29:00,
2013-06-17 07:34:00,61.9,60.7,29.56,North,0,0.0,0.0,96,0.00,,---,0.00,VWS V14.01,2013-06-17 11:34:00,
2013-06-17 07:39:00,62.2,61.1,29.56,North,0,0.0,0.0,96,0.00,,---,0.00,VWS V14.01,2013-06-17 11:39:00,
2013-06-17 07:44:00,62.8,61.3,29.56,SSE,158,0.9,2.2,95,0.00,,---,0.00,VWS V14.01,2013-06-17 11:44:00,
2013-06-17 07:49:00,63.5,62.0,29.56,South,180,0.0,0.0,95,0.00,,---,0.00,VWS V14.01,2013-06-17 11:49:00,
2013-06-17 07:54:00,64.2,62.8,29.56,West,270,0.0,0.0,95,0.00,,---,0.00,VWS V14.01,2013-06-17 11:54:00,
2013-06-17 07:59:00,64.8,63.0,29.56,SE,135,1.1,1.1,94,0.00,,---,0.00,VWS V14.01,2013-06-17 11:59:00,
2013-06-17 08:04:00,65.3,63.2,29.56,East,90,0.0,1.1,93,0.00,,---,0.00,VWS V14.01,2013-06-17 12:04:00,
2013-06-17 08:09:00,65.8,63.5,29.56,West,270,1.1,1.1,92,0.00,,---,0.00,VWS V14.01,2013-06-17 12:09:00,
2013-06-17 08:14:00,66.2,63.2,29.56,South,180,0.0,1.1,90,0.00,,---,0.00,VWS V14.01,2013-06-17 12:14:00,
2013-06-17 08:19:00,66.7,63.7,29.56,SE,135,0.0,0.0,90,0.00,,---,0.00,VWS V14.01,2013-06-17 12:19:00,
2013-06-17 08:24:00,67.1,63.4,29.56,SE,135,1.1,1.1,88,0.00,,---,0.00,VWS V14.01,2013-06-17 12:24:00,
2013-06-17 08:29:00,67.6,63.6,29.56,SE,135,1.1,1.1,87,0.00,,---,0.00,VWS V14.01,2013-06-17 12:29:00,
2013-06-17 08:34:00,68.0,63.7,29.56,SE,135,1.1,1.1,86,0.00,,---,0.00,VWS V14.01,2013-06-17 12:34:00,
2013-06-17 08:39:00,68.4,64.0,29.56,SE,135,0.0,0.0,86,0.00,,---,0.00,VWS V14.01,2013-06-17 12:39:00,
2013-06-17 08:44:00,68.7,63.0,29.56,SW,225,0.9,4.3,82,0.00,,---,0.00,VWS V14.01,2013-06-17 12:44:00,
2013-06-17 08:49:00,69.3,63.5,29.56,SE,135,0.0,0.0,82,0.00,,---,0.00,VWS V14.01,2013-06-17 12:49:00,
2013-06-17 08:54:00,69.6,63.5,29.56,SE,135,0.0,1.3,81,0.00,,---,0.00,VWS V14.01,2013-06-17 12:54:00,
2013-06-17 08:59:00,70.2,63.7,29.56,ESE,112,2.2,2.2,80,0.00,,---,0.00,VWS V14.01,2013-06-17 12:59:00,
2013-06-17 09:04:00,70.5,64.1,29.56,SSE,158,0.9,0.9,80,0.00,,---,0.00,VWS V14.01,2013-06-17 13:04:00,
2013-06-17 09:09:00,71.4,64.6,29.56,SSE,158,1.6,1.6,79,0.00,,---,0.00,VWS V14.01,2013-06-17 13:09:00,
2013-06-17 09:14:00,71.8,64.2,29.56,West,270,0.0,1.1,77,0.00,,---,0.00,VWS V14.01,2013-06-17 13:14:00,
2013-06-17 09:19:00,72.9,63.7,29.56,South,180,2.2,2.2,73,0.00,,---,0.00,VWS V14.01,2013-06-17 13:19:00,
2013-06-17 09:24:00,74.1,63.7,29.53,ESE,112,1.1,1.3,70,0.00,,---,0.00,VWS V14.01,2013-06-17 13:24:00,
2013-06-17 09:29:00,75.6,63.4,29.53,SE,135,0.0,0.0,66,0.00,,---,0.00,VWS V14.01,2013-06-17 13:29:00,
2013-06-17 09:34:00,77.0,64.8,29.53,SSW,202,1.1,1.1,66,0.00,,---,0.00,VWS V14.01,2013-06-17 13:34:00,
2013-06-17 09:39:00,78.4,64.8,29.56,SE,135,1.3,1.6,63,0.00,,---,0.00,VWS V14.01,2013-06-17 13:39:00,
2013-06-17 09:44:00,79.7,65.5,29.56,SE,135,0.9,1.3,62,0.00,,---,0.00,VWS V14.01,2013-06-17 13:44:00,
2013-06-17 09:49:00,80.2,64.6,29.56,ESE,112,1.1,2.0,59,0.00,,---,0.00,VWS V14.01,2013-06-17 13:49:00,
2013-06-17 09:54:00,81.5,63.8,29.53,SE,135,0.0,2.5,55,0.00,,---,0.00,VWS V14.01,2013-06-17 13:54:00,
2013-06-17 09:59:00,82.4,64.6,29.53,East,90,0.0,0.0,55,0.00,,---,0.00,VWS V14.01,2013-06-17 13:59:00,
2013-06-17 10:04:00,82.8,63.9,29.53,SE,135,0.9,2.0,53,0.00,,---,0.00,VWS V14.01,2013-06-17 14:04:00,
2013-06-17 10:09:00,83.8,63.2,29.56,SE,135,1.6,1.6,50,0.00,,---,0.00,VWS V14.01,2013-06-17 14:09:00,
2013-06-17 10:14:00,83.8,61.5,29.56,West,270,1.1,2.0,47,0.00,,---,0.00,VWS V14.01,2013-06-17 14:14:00,
2013-06-17 10:19:00,84.9,61.8,29.56,SE,135,0.9,1.6,46,0.00,,---,0.00,VWS V14.01,2013-06-17 14:19:00,
2013-06-17 10:24:00,85.3,61.6,29.53,SE,135,1.6,1.6,45,0.00,,---,0.00,VWS V14.01,2013-06-17 14:24:00,
2013-06-17 10:29:00,85.1,60.1,29.53,SE,135,1.3,6.0,43,0.00,,---,0.00,VWS V14.01,2013-06-17 14:29:00,
2013-06-17 10:34:00,86.2,61.7,29.53,SE,135,0.9,1.3,44,0.00,,---,0.00,VWS V14.01,2013-06-17 14:34:00,
2013-06-17 10:39:00,86.7,62.2,29.56,East,90,0.9,1.3,44,0.00,,---,0.00,VWS V14.01,2013-06-17 14:39:00,
2013-06-17 10:44:00,87.3,62.1,29.56,East,90,1.1,1.6,43,0.00,,---,0.00,VWS V14.01,2013-06-17 14:44:00,
2013-06-17 10:49:00,87.8,61.2,29.56,SSE,158,0.0,0.9,41,0.00,,---,0.00,VWS V14.01,2013-06-17 14:49:00,
2013-06-17 10:54:00,87.4,60.2,29.53,East,90,1.1,3.4,40,0.00,,---,0.00,VWS V14.01,2013-06-17 14:54:00,
2013-06-17 10:59:00,87.4,61.5,29.53,South,180,2.0,2.0,42,0.00,,---,0.00,VWS V14.01,2013-06-17 14:59:00,
2013-06-17 11:04:00,86.5,59.4,29.53,SSE,158,2.9,2.9,40,0.00,,---,0.00,VWS V14.01,2013-06-17 15:04:00,
2013-06-17 11:09:00,87.6,60.3,29.53,South,180,0.0,1.1,40,0.00,,---,0.00,VWS V14.01,2013-06-17 15:09:00,
2013-06-17 11:14:00,88.3,61.0,29.53,SW,225,0.9,0.9,40,0.00,,---,0.00,VWS V14.01,2013-06-17 15:14:00,
2013-06-17 11:19:00,89.1,61.6,29.53,SSW,202,1.1,2.7,40,0.00,,---,0.00,VWS V14.01,2013-06-17 15:19:00,
2013-06-17 11:24:00,89.4,61.9,29.56,SE,135,0.0,2.2,40,0.00,,---,0.00,VWS V14.01,2013-06-17 15:24:00,
2013-06-17 11:29:00,88.9,58.5,29.56,SSE,158,2.9,5.8,36,0.00,,---,0.00,VWS V14.01,2013-06-17 15:29:00,
2013-06-17 11:34:00,90.0,61.7,29.56,SW,225,0.0,1.3,39,0.00,,---,0.00,VWS V14.01,2013-06-17 15:34:00,
2013-06-17 11:39:00,90.3,62.0,29.56,SW,225,1.6,2.2,39,0.00,,---,0.00,VWS V14.01,2013-06-17 15:39:00,
2013-06-17 11:44:00,89.8,60.8,29.56,SW,225,2.5,2.5,38,0.00,,---,0.00,VWS V14.01,2013-06-17 15:44:00,
2013-06-17 11:49:00,90.7,61.6,29.56,SE,135,1.6,1.6,38,0.00,,---,0.00,VWS V14.01,2013-06-17 15:49:00,
2013-06-17 11:54:00,91.2,62.1,29.56,South,180,1.1,1.1,38,0.00,,---,0.00,VWS V14.01,2013-06-17 15:54:00,
2013-06-17 11:59:00,91.0,61.9,29.56,SSE,158,1.6,1.6,38,0.00,,---,0.00,VWS V14.01,2013-06-17 15:59:00,
2013-06-17 12:04:00,91.8,62.6,29.56,ESE,112,1.3,1.6,38,0.00,,---,0.00,VWS V14.01,2013-06-17 16:04:00,
2013-06-17 12:09:00,91.8,63.3,29.56,SSE,158,0.9,1.3,39,0.00,,---,0.00,VWS V14.01,2013-06-17 16:09:00,
2013-06-17 12:14:00,90.5,60.7,29.56,South,180,1.1,1.1,37,0.00,,---,0.00,VWS V14.01,2013-06-17 16:14:00,
2013-06-17 12:19:00,89.8,60.8,29.56,SE,135,1.6,1.6,38,0.00,,---,0.00,VWS V14.01,2013-06-17 16:19:00,
2013-06-17 12:24:00,90.7,60.1,29.56,SE,135,2.9,2.9,36,0.00,,---,0.00,VWS V14.01,2013-06-17 16:24:00,
2013-06-17 12:29:00,91.6,61.7,29.56,SW,225,1.1,1.1,37,0.00,,---,0.00,VWS V14.01,2013-06-17 16:29:00,
2013-06-17 12:34:00,91.8,61.8,29.56,SSW,202,1.1,1.1,37,0.00,,---,0.00,VWS V14.01,2013-06-17 16:34:00,
2013-06-17 12:39:00,88.2,57.9,29.56,East,90,0.0,0.0,36,0.00,,---,0.00,VWS V14.01,2013-06-17 16:39:00,
2013-06-17 12:44:00,88.3,59.5,29.56,West,270,0.9,1.6,38,0.00,,---,0.00,VWS V14.01,2013-06-17 16:44:00,
2013-06-17 12:49:00,90.3,62.0,29.56,SSW,202,1.3,1.3,39,0.00,,---,0.00,VWS V14.01,2013-06-17 16:49:00,
2013-06-17 12:54:00,88.7,59.9,29.56,SW,225,0.9,0.9,38,0.00,,---,0.00,VWS V14.01,2013-06-17 16:54:00,
2013-06-17 12:59:00,88.7,60.6,29.56,SE,135,1.1,1.1,39,0.00,,---,0.00,VWS V14.01,2013-06-17 16:59:00,
2013-06-17 13:04:00,91.2,62.1,29.56,ESE,112,2.2,2.2,38,0.00,,---,0.00,VWS V14.01,2013-06-17 17:04:00,
2013-06-17 13:09:00,87.8,59.8,29.56,SSW,202,2.0,2.0,39,0.00,,---,0.00,VWS V14.01,2013-06-17 17:09:00,
2013-06-17 13:14:00,90.1,61.9,29.56,SSW,202,1.3,1.3,39,0.00,,---,0.00,VWS V14.01,2013-06-17 17:14:00,
2013-06-17 13:19:00,91.2,62.8,29.56,SW,225,2.0,2.0,39,0.00,,---,0.00,VWS V14.01,2013-06-17 17:19:00,
2013-06-17 13:24:00,90.1,61.1,29.56,WSW,248,2.0,2.0,38,0.00,,---,0.00,VWS V14.01,2013-06-17 17:24:00,
2013-06-17 13:28:00,90.1,60.4,29.56,SE,135,3.1,3.1,37,0.00,,---,0.00,VWS V14.01,2013-06-17 17:28:00,
2013-06-17 13:33:00,91.0,61.9,29.56,East,90,1.1,1.6,38,0.00,,---,0.00,VWS V14.01,2013-06-17 17:33:00,
2013-06-17 13:38:00,92.5,62.4,29.53,NE,45,2.9,2.9,37,0.00,,---,0.00,VWS V14.01,2013-06-17 17:38:00,
2013-06-17 13:43:00,93.4,62.5,29.53,West,270,0.0,0.0,36,0.00,,---,0.00,VWS V14.01,2013-06-17 17:43:00,
2013-06-17 13:48:00,93.6,62.6,29.53,South,180,1.1,2.0,36,0.00,,---,0.00,VWS V14.01,2013-06-17 17:48:00,
2013-06-17 13:53:00,93.6,61.8,29.50,West,270,0.9,0.9,35,0.00,,---,0.00,VWS V14.01,2013-06-17 17:53:00,
2013-06-17 13:58:00,92.7,58.5,29.50,East,90,3.4,3.4,32,0.00,,---,0.00,VWS V14.01,2013-06-17 17:58:00,
2013-06-17 14:03:00,91.9,60.4,29.50,SSW,202,2.0,2.2,35,0.00,,---,0.00,VWS V14.01,2013-06-17 18:03:00,
2013-06-17 14:08:00,93.7,62.0,29.53,SW,225,0.9,1.6,35,0.00,,---,0.00,VWS V14.01,2013-06-17 18:08:00,
2013-06-17 14:13:00,93.9,60.5,29.53,WSW,248,1.3,3.6,33,0.00,,---,0.00,VWS V14.01,2013-06-17 18:13:00,
2013-06-17 14:18:00,92.8,60.4,29.53,NE,45,1.1,2.2,34,0.00,,---,0.00,VWS V14.01,2013-06-17 18:18:00,
2013-06-17 14:23:00,92.7,60.2,29.53,SSW,202,2.2,2.2,34,0.00,,---,0.00,VWS V14.01,2013-06-17 18:23:00,
2013-06-17 14:28:00,93.2,59.8,29.53,South,180,3.6,3.6,33,0.00,,---,0.00,VWS V14.01,2013-06-17 18:28:00,
2013-06-17 14:33:00,93.9,60.5,29.53,North,0,0.0,1.3,33,0.00,,---,0.00,VWS V14.01,2013-06-17 18:33:00,
2013-06-17 14:38:00,93.6,60.2,29.50,West,270,2.9,2.9,33,0.00,,---,0.00,VWS V14.01,2013-06-17 18:38:00,
2013-06-17 14:43:00,91.4,59.9,29.50,West,270,1.6,1.6,35,0.00,,---,0.00,VWS V14.01,2013-06-17 18:43:00,
2013-06-17 14:48:00,91.0,59.6,29.50,South,180,2.5,2.5,35,0.00,,---,0.00,VWS V14.01,2013-06-17 18:48:00,
2013-06-17 14:53:00,89.2,58.8,29.53,SW,225,1.1,2.7,36,0.00,,---,0.00,VWS V14.01,2013-06-17 18:53:00,
2013-06-17 14:58:00,88.5,58.2,29.53,West,270,1.6,3.4,36,0.00,,---,0.00,VWS V14.01,2013-06-17 18:58:00,
2013-06-17 15:03:00,87.1,57.7,29.53,East,90,1.6,2.5,37,0.00,,---,0.00,VWS V14.01,2013-06-17 19:03:00,
2013-06-17 15:08:00,85.6,57.9,29.50,SW,225,2.0,2.5,39,0.00,,---,0.00,VWS V14.01,2013-06-17 19:08:00,
2013-06-17 15:13:00,84.4,56.7,29.50,WSW,248,1.3,2.2,39,0.00,,---,0.00,VWS V14.01,2013-06-17 19:13:00,
2013-06-17 15:18:00,83.8,57.0,29.50,SW,225,2.2,2.2,40,0.00,,---,0.00,VWS V14.01,2013-06-17 19:18:00,
2013-06-17 15:23:00,83.7,56.8,29.50,SW,225,1.6,1.6,40,0.00,,---,0.00,VWS V14.01,2013-06-17 19:23:00,
2013-06-17 15:28:00,84.9,58.6,29.50,SW,225,1.6,1.6,41,0.00,,---,0.00,VWS V14.01,2013-06-17 19:28:00,
2013-06-17 15:33:00,87.4,60.2,29.50,WSW,248,1.1,2.0,40,0.00,,---,0.00,VWS V14.01,2013-06-17 19:33:00,
2013-06-17 15:38:00,86.4,59.2,29.50,South,180,1.1,3.4,40,0.00,,---,0.00,VWS V14.01,2013-06-17 19:38:00,
2013-06-17 15:43:00,84.6,58.3,29.50,South,180,1.3,2.0,41,0.00,,---,0.00,VWS V14.01,2013-06-17 19:43:00,
2013-06-17 15:48:00,85.6,59.9,29.50,West,270,1.1,1.1,42,0.00,,---,0.00,VWS V14.01,2013-06-17 19:48:00,
2013-06-17 15:53:00,87.1,59.8,29.50,South,180,0.9,2.5,40,0.00,,---,0.00,VWS V14.01,2013-06-17 19:53:00,
2013-06-17 15:58:00,87.3,59.3,29.50,West,270,0.9,2.5,39,0.00,,---,0.00,VWS V14.01,2013-06-17 19:58:00,
2013-06-17 16:03:00,86.0,58.2,29.50,SSW,202,0.0,1.1,39,0.00,,---,0.00,VWS V14.01,2013-06-17 20:03:00,
2013-06-17 16:08:00,84.7,57.8,29.53,SE,135,0.9,1.1,40,0.00,,---,0.00,VWS V14.01,2013-06-17 20:08:00,
2013-06-17 16:13:00,84.0,57.8,29.53,SW,225,0.0,1.6,41,0.00,,---,0.00,VWS V14.01,2013-06-17 20:13:00,
2013-06-17 16:18:00,81.3,54.7,29.53,East,90,2.5,6.3,40,0.00,,---,0.00,VWS V14.01,2013-06-17 20:18:00,
2013-06-17 16:23:00,78.1,52.5,29.56,SW,225,3.4,4.3,41,0.00,,---,0.00,VWS V14.01,2013-06-17 20:23:00,
2013-06-17 16:28:00,75.6,50.9,29.56,SE,135,3.4,5.4,42,0.00,,---,0.00,VWS V14.01,2013-06-17 20:28:00,
2013-06-17 16:33:00,74.5,50.5,29.56,South,180,0.9,1.3,43,0.00,,---,0.00,VWS V14.01,2013-06-17 20:33:00,
2013-06-17 16:38:00,74.1,50.8,29.56,East,90,2.0,2.7,44,0.00,,---,0.00,VWS V14.01,2013-06-17 20:38:00,
2013-06-17 16:43:00,73.0,52.2,29.56,East,90,2.0,2.0,48,0.00,,---,0.00,VWS V14.01,2013-06-17 20:43:00,
2013-06-17 16:48:00,71.4,56.4,29.56,East,90,2.7,2.7,59,0.00,,---,0.00,VWS V14.01,2013-06-17 20:48:00,
2013-06-17 16:53:00,70.5,56.4,29.53,East,90,1.1,1.1,61,0.00,,---,0.00,VWS V14.01,2013-06-17 20:53:00,
2013-06-17 16:58:00,69.8,57.9,29.53,East,90,2.2,2.2,66,0.00,,---,0.00,VWS V14.01,2013-06-17 20:58:00,
2013-06-17 17:03:00,69.4,57.6,29.53,East,90,0.0,1.3,66,0.00,,---,0.00,VWS V14.01,2013-06-17 21:03:00,
2013-06-17 17:08:00,69.1,58.1,29.56,West,270,1.1,2.2,68,0.00,,---,0.00,VWS V14.01,2013-06-17 21:08:00,
2013-06-17 17:13:00,68.7,57.7,29.56,SE,135,1.6,2.9,68,0.00,,---,0.00,VWS V14.01,2013-06-17 21:13:00,
2013-06-17 17:18:00,68.0,57.5,29.56,NW,315,2.0,2.7,69,0.00,,---,0.00,VWS V14.01,2013-06-17 21:18:00,
2013-06-17 17:23:00,66.6,58.4,29.56,West,270,2.0,2.0,75,0.00,,---,0.00,VWS V14.01,2013-06-17 21:23:00,
2013-06-17 17:28:00,65.5,58.5,29.56,South,180,0.0,0.0,78,0.00,,---,0.00,VWS V14.01,2013-06-17 21:28:00,
2013-06-17 17:33:00,65.1,58.5,29.56,SW,225,0.0,0.0,79,0.00,,---,0.00,VWS V14.01,2013-06-17 21:33:00,
2013-06-17 17:38:00,64.6,58.6,29.56,South,180,0.0,0.0,81,0.00,,---,0.00,VWS V14.01,2013-06-17 21:38:00,
2013-06-17 17:43:00,64.2,58.3,29.56,South,180,0.0,0.0,81,0.00,,---,0.00,VWS V14.01,2013-06-17 21:43:00,
2013-06-17 17:48:00,64.0,58.1,29.56,WSW,248,1.1,1.6,81,0.04,,---,0.04,VWS V14.01,2013-06-17 21:48:00,
2013-06-17 17:53:00,63.9,58.6,29.59,South,180,0.0,0.0,83,0.04,,---,0.04,VWS V14.01,2013-06-17 21:53:00,
2013-06-17 17:58:00,63.7,60.1,29.59,SSE,158,0.0,0.0,88,0.04,,---,0.04,VWS V14.01,2013-06-17 21:58:00,
2013-06-17 18:03:00,63.5,59.2,29.59,SE,135,0.0,0.0,86,0.04,,---,0.04,VWS V14.01,2013-06-17 22:03:00,
2013-06-17 18:08:00,63.3,59.4,29.56,SW,225,0.0,0.0,87,0.04,,---,0.04,VWS V14.01,2013-06-17 22:08:00,
2013-06-17 18:13:00,63.3,59.1,29.56,SW,225,0.0,0.9,86,0.04,,---,0.04,VWS V14.01,2013-06-17 22:13:00,
2013-06-17 18:18:00,63.5,59.6,29.56,ESE,112,0.0,0.0,87,0.04,,---,0.04,VWS V14.01,2013-06-17 22:18:00,
2013-06-17 18:23:00,63.7,60.1,29.56,ESE,112,0.0,0.0,88,0.04,,---,0.04,VWS V14.01,2013-06-17 22:23:00,
2013-06-17 18:28:00,64.0,60.4,29.56,ESE,112,1.1,1.1,88,0.04,,---,0.04,VWS V14.01,2013-06-17 22:28:00,
2013-06-17 18:33:00,64.4,61.4,29.56,East,90,1.6,1.6,90,0.04,,---,0.04,VWS V14.01,2013-06-17 22:33:00,
2013-06-17 18:38:00,64.8,61.8,29.56,East,90,0.0,0.0,90,0.04,,---,0.04,VWS V14.01,2013-06-17 22:38:00,
2013-06-17 18:43:00,64.9,61.9,29.56,East,90,0.0,0.0,90,0.04,,---,0.04,VWS V14.01,2013-06-17 22:43:00,
2013-06-17 18:48:00,65.1,61.8,29.56,East,90,0.0,0.0,89,0.00,,---,0.04,VWS V14.01,2013-06-17 22:48:00,
2013-06-17 18:53:00,65.3,62.3,29.56,East,90,0.0,0.0,90,0.00,,---,0.04,VWS V14.01,2013-06-17 22:53:00,
2013-06-17 18:58:00,65.3,62.0,29.56,SE,135,0.0,0.0,89,0.00,,---,0.04,VWS V14.01,2013-06-17 22:58:00,
2013-06-17 19:03:00,65.1,62.1,29.56,SE,135,0.0,0.0,90,0.00,,---,0.04,VWS V14.01,2013-06-17 23:03:00,
2013-06-17 19:08:00,64.9,61.6,29.56,SE,135,0.0,0.0,89,0.00,,---,0.04,VWS V14.01,2013-06-17 23:08:00,
2013-06-17 19:13:00,64.8,61.5,29.56,SE,135,0.0,0.0,89,0.00,,---,0.04,VWS V14.01,2013-06-17 23:13:00,
2013-06-17 19:18:00,64.8,61.5,29.56,SE,135,0.0,0.0,89,0.00,,---,0.04,VWS V14.01,2013-06-17 23:18:00,
2013-06-17 19:23:00,64.6,61.6,29.56,SE,135,0.9,1.1,90,0.00,,---,0.04,VWS V14.01,2013-06-17 23:23:00,
2013-06-17 19:28:00,64.4,61.4,29.56,SW,225,0.9,0.9,90,0.00,,---,0.04,VWS V14.01,2013-06-17 23:28:00,
2013-06-17 19:33:00,64.4,61.7,29.56,SW,225,0.0,0.0,91,0.00,,---,0.04,VWS V14.01,2013-06-17 23:33:00,
2013-06-17 19:38:00,64.4,61.7,29.59,East,90,0.0,0.0,91,0.00,,---,0.04,VWS V14.01,2013-06-17 23:38:00,
2013-06-17 19:43:00,64.6,61.9,29.59,West,270,1.1,1.6,91,0.00,,---,0.04,VWS V14.01,2013-06-17 23:43:00,
2013-06-17 19:48:00,64.6,61.9,29.59,West,270,0.0,0.0,91,0.00,,---,0.04,VWS V14.01,2013-06-17 23:48:00,
2013-06-17 19:53:00,64.4,61.7,29.59,West,270,0.0,0.0,91,0.00,,---,0.04,VWS V14.01,2013-06-17 23:53:00,
2013-06-17 19:58:00,64.4,62.0,29.59,NW,315,0.0,0.0,92,0.00,,---,0.04,VWS V14.01,2013-06-17 23:58:00,
2013-06-17 20:03:00,64.2,61.8,29.59,South,180,1.1,1.1,92,0.00,,---,0.04,VWS V14.01,2013-06-18 00:03:00,
2013-06-17 20:08:00,64.2,61.8,29.59,WNW,292,0.0,0.0,92,0.00,,---,0.04,VWS V14.01,2013-06-18 00:08:00,
2013-06-17 20:13:00,63.9,61.5,29.59,NW,315,0.0,0.9,92,0.00,,---,0.04,VWS V14.01,2013-06-18 00:13:00,
2013-06-17 20:17:00,63.5,61.1,29.59,SW,225,0.0,0.0,92,0.00,,---,0.04,VWS V14.01,2013-06-18 00:17:00,
2013-06-17 20:22:00,63.3,61.0,29.59,South,180,0.0,0.0,92,0.00,,---,0.04,VWS V14.01,2013-06-18 00:22:00,
2013-06-17 20:27:00,63.1,60.8,29.59,South,180,0.0,0.0,92,0.00,,---,0.04,VWS V14.01,2013-06-18 00:27:00,
2013-06-17 20:32:00,62.8,60.4,29.59,South,180,1.1,1.1,92,0.00,,---,0.04,VWS V14.01,2013-06-18 00:32:00,
2013-06-17 20:37:00,62.8,60.4,29.59,South,180,0.0,0.0,92,0.00,,---,0.04,VWS V14.01,2013-06-18 00:37:00,
2013-06-17 20:42:00,62.6,60.2,29.59,South,180,0.0,0.0,92,0.00,,---,0.04,VWS V14.01,2013-06-18 00:42:00,
2013-06-17 20:47:00,62.4,60.4,29.59,South,180,0.0,0.0,93,0.00,,---,0.04,VWS V14.01,2013-06-18 00:47:00,
2013-06-17 20:52:00,62.2,60.2,29.59,South,180,0.0,0.0,93,0.00,,---,0.04,VWS V14.01,2013-06-18 00:52:00,
2013-06-17 20:57:00,62.1,60.0,29.59,South,180,0.0,0.0,93,0.00,,---,0.04,VWS V14.01,2013-06-18 00:57:00,
2013-06-17 21:02:00,61.9,59.8,29.59,South,180,0.0,0.0,93,0.00,,---,0.04,VWS V14.01,2013-06-18 01:02:00,
2013-06-17 21:07:00,61.7,59.7,29.59,South,180,0.0,0.0,93,0.00,,---,0.04,VWS V14.01,2013-06-18 01:07:00,
2013-06-17 21:12:00,61.7,59.7,29.59,SE,135,0.0,0.0,93,0.00,,---,0.04,VWS V14.01,2013-06-18 01:12:00,
2013-06-17 21:17:00,61.5,59.5,29.59,SE,135,0.0,0.0,93,0.00,,---,0.04,VWS V14.01,2013-06-18 01:17:00,
2013-06-17 21:22:00,61.5,59.5,29.62,SE,135,0.0,0.0,93,0.00,,---,0.04,VWS V14.01,2013-06-18 01:22:00,
2013-06-17 21:27:00,61.3,59.3,29.62,South,180,0.0,0.0,93,0.00,,---,0.04,VWS V14.01,2013-06-18 01:27:00,
2013-06-17 21:32:00,61.5,59.8,29.62,SSW,202,0.0,0.9,94,0.00,,---,0.04,VWS V14.01,2013-06-18 01:32:00,
2013-06-17 21:37:00,61.7,60.0,29.62,SSW,202,0.0,0.0,94,0.00,,---,0.04,VWS V14.01,2013-06-18 01:37:00,
2013-06-17 21:42:00,61.7,60.0,29.62,SSW,202,0.0,0.0,94,0.00,,---,0.04,VWS V14.01,2013-06-18 01:42:00,
2013-06-17 21:47:00,61.7,60.0,29.62,SSW,202,0.0,0.0,94,0.00,,---,0.04,VWS V14.01,2013-06-18 01:47:00,
2013-06-17 21:52:00,61.7,60.0,29.62,SSW,202,0.0,0.0,94,0.00,,---,0.04,VWS V14.01,2013-06-18 01:52:00,
2013-06-17 21:57:00,61.5,59.8,29.62,SSW,202,0.0,0.0,94,0.00,,---,0.04,VWS V14.01,2013-06-18 01:57:00,
2013-06-17 22:02:00,61.3,59.9,29.62,SSW,202,0.0,0.0,95,0.00,,---,0.04,VWS V14.01,2013-06-18 02:02:00,
2013-06-17 22:07:00,61.3,59.6,29.62,SE,135,0.0,0.0,94,0.00,,---,0.04,VWS V14.01,2013-06-18 02:07:00,
2013-06-17 22:12:00,61.3,59.9,29.62,SE,135,0.0,0.0,95,0.00,,---,0.04,VWS V14.01,2013-06-18 02:12:00,
2013-06-17 22:17:00,61.2,59.7,29.62,SE,135,0.0,0.0,95,0.00,,---,0.04,VWS V14.01,2013-06-18 02:17:00,
2013-06-17 22:22:00,61.2,59.7,29.59,SE,135,0.0,0.0,95,0.00,,---,0.04,VWS V14.01,2013-06-18 02:22:00,
2013-06-17 22:27:00,61.2,59.4,29.59,SE,135,0.0,0.0,94,0.00,,---,0.04,VWS V14.01,2013-06-18 02:27:00,
2013-06-17 22:32:00,61.2,59.4,29.59,SE,135,0.0,0.0,94,0.00,,---,0.04,VWS V14.01,2013-06-18 02:32:00,
2013-06-17 22:37:00,61.2,59.4,29.59,SE,135,0.0,0.0,94,0.00,,---,0.04,VWS V14.01,2013-06-18 02:37:00,
2013-06-17 22:42:00,61.2,59.4,29.59,SE,135,0.0,0.0,94,0.00,,---,0.04,VWS V14.01,2013-06-18 02:42:00,
2013-06-17 22:47:00,61.2,59.4,29.59,SE,135,0.0,0.0,94,0.00,,---,0.04,VWS V14.01,2013-06-18 02:47:00,
2013-06-17 22:52:00,60.4,59.0,29.62,SE,135,0.0,0.0,95,0.00,,---,0.04,VWS V14.01,2013-06-18 02:52:00,
2013-06-17 22:57:00,60.4,59.0,29.62,SE,135,0.0,0.0,95,0.00,,---,0.04,VWS V14.01,2013-06-18 02:57:00,
2013-06-17 23:02:00,60.4,59.0,29.62,South,180,0.0,1.1,95,0.00,,---,0.04,VWS V14.01,2013-06-18 03:02:00,
2013-06-17 23:07:00,60.4,59.0,29.62,SE,135,0.0,0.9,95,0.00,,---,0.04,VWS V14.01,2013-06-18 03:07:00,
2013-06-17 23:12:00,60.3,58.8,29.62,SE,135,0.0,0.0,95,0.00,,---,0.04,VWS V14.01,2013-06-18 03:12:00,
2013-06-17 23:17:00,60.3,59.1,29.62,SE,135,0.0,0.0,96,0.00,,---,0.04,VWS V14.01,2013-06-18 03:17:00,
2013-06-17 23:22:00,60.3,59.1,29.65,SE,135,0.0,0.0,96,0.00,,---,0.04,VWS V14.01,2013-06-18 03:22:00,
2013-06-17 23:27:00,60.1,58.9,29.65,SE,135,0.0,0.0,96,0.00,,---,0.04,VWS V14.01,2013-06-18 03:27:00,
2013-06-17 23:32:00,60.1,58.9,29.65,ESE,112,0.0,0.0,96,0.00,,---,0.04,VWS V14.01,2013-06-18 03:32:00,
2013-06-17 23:37:00,60.1,58.9,29.65,ESE,112,0.0,0.0,96,0.00,,---,0.04,VWS V14.01,2013-06-18 03:37:00,
2013-06-17 23:42:00,60.1,58.9,29.65,ESE,112,0.0,0.0,96,0.00,,---,0.04,VWS V14.01,2013-06-18 03:42:00,
2013-06-17 23:47:00,60.1,58.7,29.65,ESE,112,0.0,0.0,95,0.00,,---,0.04,VWS V14.01,2013-06-18 03:47:00,
2013-06-17 23:52:00,59.9,58.8,29.65,ESE,112,0.0,0.0,96,0.00,,---,0.04,VWS V14.01,2013-06-18 03:52:00,
2013-06-17 23:57:00,59.7,58.6,29.65,ESE,112,0.0,0.0,96,0.00,,---,0.04,VWS V14.01,2013-06-18 03:57:00,